| time (UTC) | temp F | wind direction | speed knots | gust knots | rain 1hr in | rain 24hr in | rain mn in | humidity % | barometer mb |
| 20260504223027 | 67 | 191 | 7.0 | 15.6 | 0.00 | 0.00 | 0.00 | 39 | 1004.5 |
| 20260504221523 | 68 | 200 | 7.0 | 15.6 | 0.00 | 0.00 | 0.00 | 37 | 1004.6 |
| 20260504220034 | 70 | 195 | 5.2 | 10.4 | 0.00 | 0.00 | 0.00 | 34 | 1004.4 |
| 20260504214521 | 69 | 257 | 5.2 | 16.5 | 0.00 | 0.00 | 0.00 | 34 | 1004.4 |
| 20260504213012 | 69 | 219 | 7.0 | 16.5 | 0.00 | 0.00 | 0.00 | 34 | 1004.4 |
| 20260504211517 | 70 | 234 | 6.1 | 13.9 | 0.00 | 0.00 | 0.00 | 33 | 1004.4 |
| 20260504210004 | 69 | 182 | 5.2 | 15.6 | 0.00 | 0.00 | 0.00 | 33 | 1004.4 |
| 20260504204607 | 70 | 219 | 6.1 | 13.9 | 0.00 | 0.00 | 0.00 | 33 | 1004.4 |
| 20260504203107 | 70 | 257 | 7.8 | 20.0 | 0.00 | 0.00 | 0.00 | 33 | 1004.4 |
| 20260504201618 | 70 | 210 | 4.3 | 16.5 | 0.00 | 0.00 | 0.00 | 32 | 1004.4 |
| 20260504200053 | 70 | 208 | 7.0 | 13.9 | 0.00 | 0.00 | 0.00 | 32 | 1004.7 |
| 20260504194552 | 70 | 238 | 9.6 | 18.2 | 0.00 | 0.00 | 0.00 | 33 | 1004.9 |
| 20260504193045 | 70 | 213 | 7.8 | 18.2 | 0.00 | 0.00 | 0.00 | 32 | 1004.8 |
| 20260504191542 | 69 | 226 | 8.7 | 15.6 | 0.00 | 0.00 | 0.00 | 32 | 1004.7 |
| 20260504190033 | 69 | 185 | 7.0 | 16.5 | 0.00 | 0.00 | 0.00 | 32 | 1004.7 |
| 20260504184534 | 68 | 160 | 7.8 | 18.2 | 0.00 | 0.00 | 0.00 | 32 | 1004.9 |
| 20260504183027 | 69 | 207 | 4.3 | 16.5 | 0.00 | 0.00 | 0.00 | 31 | 1005.2 |
| 20260504181530 | 68 | 212 | 5.2 | 20.0 | 0.00 | 0.00 | 0.00 | 31 | 1005.3 |
| 20260504180018 | 68 | 198 | 12.2 | 21.7 | 0.00 | 0.00 | 0.00 | 31 | 1005.4 |
| 20260504174515 | 67 | 196 | 8.7 | 18.2 | 0.00 | 0.00 | 0.00 | 32 | 1005.5 |
| 20260504173115 | 66 | 203 | 9.6 | 20.9 | 0.00 | 0.00 | 0.00 | 33 | 1005.6 |
| 20260504171612 | 66 | 252 | 9.6 | 22.6 | 0.00 | 0.00 | 0.00 | 33 | 1005.7 |
| 20260504090106 | 43 | 158 | 0.9 | 3.5 | 0.00 | 0.00 | 0.00 | 62 | 1008.1 |
| 20260504081547 | 43 | 147 | 0.9 | 4.3 | 0.00 | 0.00 | 0.00 | 60 | 1008.0 |
| 20260504050104 | 44 | 212 | 2.6 | 3.5 | 0.00 | 0.00 | 0.00 | 57 | 1008.1 |
| 20260504044600 | 44 | 193 | 0.9 | 2.6 | 0.00 | 0.00 | 0.00 | 57 | 1008.2 |
| 20260504043101 | 44 | 214 | 0.9 | 2.6 | 0.00 | 0.00 | 0.00 | 55 | 1008.3 |
| 20260504041551 | 44 | 213 | 1.7 | 3.5 | 0.00 | 0.00 | 0.00 | 55 | 1008.4 |
| 20260504040048 | 44 | 204 | 1.7 | 4.3 | 0.00 | 0.00 | 0.00 | 52 | 1008.3 |
| 20260504034544 | 44 | 212 | 1.7 | 4.3 | 0.00 | 0.00 | 0.00 | 52 | 1008.1 |
| 20260504033049 | 44 | 238 | 2.6 | 5.2 | 0.00 | 0.00 | 0.00 | 52 | 1007.9 |
| 20260504031535 | 43 | 229 | 2.6 | 5.2 | 0.00 | 0.00 | 0.00 | 54 | 1007.7 |
| 20260504030031 | 42 | 212 | 1.7 | 3.5 | 0.00 | 0.00 | 0.00 | 58 | 1007.6 |
| 20260504024540 | 42 | 249 | 0.9 | 3.5 | 0.00 | 0.00 | 0.00 | 59 | 1007.5 |
| 20260504023021 | 42 | 236 | 0.9 | 3.5 | 0.00 | 0.00 | 0.00 | 58 | 1007.5 |
| 20260504021517 | 42 | 252 | 0.9 | 3.5 | 0.00 | 0.00 | 0.00 | 58 | 1007.3 |
| 20260504020015 | 42 | 233 | 0.9 | 2.6 | 0.00 | 0.00 | 0.00 | 58 | 1007.3 |
| 20260504014506 | 43 | 220 | 0.9 | 3.5 | 0.00 | 0.00 | 0.00 | 57 | 1007.1 |
| 20260504013001 | 44 | 210 | 0.9 | 2.6 | 0.00 | 0.00 | 0.00 | 54 | 1007.2 |
| 20260504011601 | 45 | 211 | 0.0 | 2.6 | 0.00 | 0.00 | 0.00 | 52 | 1007.0 |
| 20260504010057 | 46 | 233 | 1.7 | 3.5 | 0.00 | 0.00 | 0.00 | 50 | 1006.9 |
| 20260504004602 | 46 | 221 | 0.0 | 1.7 | 0.00 | 0.00 | 0.00 | 48 | 1006.6 |
| 20260504003048 | 47 | 215 | 0.9 | 2.6 | 0.00 | 0.00 | 0.00 | 46 | 1006.4 |
| 20260504001547 | 48 | 259 | 0.0 | 2.6 | 0.00 | 0.00 | 0.00 | 45 | 1006.4 |
| 20260504000040 | 49 | 282 | 2.6 | 5.2 | 0.00 | 0.00 | 0.00 | 43 | 1006.1 |
| 20260503234538 | 49 | 238 | 1.7 | 6.1 | 0.00 | 0.00 | 0.00 | 42 | 1006.2 |
| 20260503233031 | 50 | 291 | 4.3 | 10.4 | 0.00 | 0.00 | 0.00 | 41 | 1006.1 |
| 20260503231525 | 51 | 279 | 1.7 | 10.4 | 0.00 | 0.00 | 0.00 | 40 | 1006.0 |
| 20260503230022 | 51 | 264 | 6.1 | 17.4 | 0.00 | 0.00 | 0.00 | 40 | 1006.0 |
| 20260503224518 | 50 | 205 | 3.5 | 10.4 | 0.00 | 0.00 | 0.00 | 41 | 1005.7 |